User: anonymous   Login
Location: Croagnes
(43.9363°N, 5.3265°E)
Time: 12:08:12
(UTC+00:00)
Language:

UWE-3 - Orbit

View from above orbital plane
View from above orbital plane
View from above satellite
View from above satellite

Ground track
Ground track

The orbit data is extracted from the following two-line orbital elements,

1 39446U 13066AG  21295.90046253  .00000394  00000-0  58114-4 0  9999
2 39446  97.6531 265.8574 0070356 142.7590 217.8531 14.78895181425937
Epoch (UTC): 22 October 2021 21:36:39
Eccentricity: 0.0070356
inclination: 97.6531°
perigee height: 583 km
apogee height: 682 km
right ascension of ascending node: 265.8574°
argument of perigee: 142.7590°
revolutions per day: 14.78895181
mean anomaly at epoch: 217.8531°
orbit number at epoch: 42593

The dashed part of the orbit path shows where the satellite is in the earth's shadow,  

DLR